Valparaiso, FL

4:13 AM CDT on May 24, 2017 (GMT -0500)
Eglin Air Force Base

Weather History for KVPS - September, 2013

Change the Weather History Date:

Wednesday, September 4, 2013

  Actual Average Record
Temperature  
Mean Temperature 80 °F -  
Max Temperature 89 °F 89 °F 97 °F (1954)
Min Temperature 71 °F 69 °F 59 °F (1952)
Cooling Degree Days 15    
Growing Degree Days 30 (Base 50)    
Moisture  
Dew Point 75 °F    
Average Humidity 81    
Maximum Humidity 98    
Minimum Humidity 66    
Precipitation  
Precipitation 0.00 in - - ()
Sea Level Pressure  
Sea Level Pressure 30.05 in    
Wind  
Wind Speed 4 mph (SW)    
Max Wind Speed 12 mph    
Max Gust Speed -    
Visibility 9 miles    
Events Rain , Thunderstorm    
Averages and records for this station are not official NWS values.
T = Trace of Precipitation, MM = Missing Value Source: NWS Daily Summary

Daily Weather History Graph

Daily Weather History Graph

Search for Another Location

Airport or City:

Trip Planner

Search our weather history database for the weather conditions in past years. The results will help you decide how hot, cold, wet, or windy it might be!

Date:

Astronomy

Sep. 04, 2013 Rise Set
Actual Time 6:24 AM CDT 7:05 PM CDT
Civil Twilight 6:00 AM CDT 7:29 PM CDT
Nautical Twilight 5:31 AM CDT 7:57 PM CDT
Astronomical Twilight 5:02 AM CDT 8:27 PM CDT
Moon 5:35 AM CDT (9/4) 6:26 PM CDT (9/4)
Length of Visible Light 13h 29m
Length of Day
12h 40m
Waning Crescent, 1% of the Moon is Illuminated
Sep 4
Waning Crescent
Sep 5
New
Sep 12
First Quarter
Sep 19
Full
Sep 26
Last Quarter

Hourly Weather History & Observations

Time (CDT) Temp. Heat Index Dew Point Humidity Pressure Visibility Wind Dir Wind Speed Gust Speed Precip Events Conditions
12:55 AM 73.4 °F - 72.9 °F 98% 29.99 in 7.0 mi NNE 4.6 mph - N/A   Partly Cloudy
1:55 AM 73.2 °F - 72.7 °F 98% 29.99 in 7.0 mi NNW 3.5 mph - N/A   Scattered Clouds
2:55 AM 72.5 °F - 72.0 °F 98% 29.98 in 9.0 mi NNE 2.3 mph - N/A   Partly Cloudy
3:55 AM 72.1 °F - 71.6 °F 98% 29.99 in 6.0 mi NNE 3.5 mph - N/A   Partly Cloudy
4:55 AM 71.8 °F - 71.1 °F 98% 29.99 in 6.0 mi NNE 1.2 mph - N/A   Partly Cloudy
5:55 AM 71.4 °F - 70.5 °F 97% 30.01 in 6.0 mi NNE 2.3 mph - N/A   Partly Cloudy
6:55 AM 72.3 °F - 71.2 °F 96% 30.02 in 5.0 mi NNE 3.5 mph - N/A   Partly Cloudy
7:55 AM 76.5 °F - 74.5 °F 94% 30.05 in 7.0 mi North 2.3 mph - N/A   Partly Cloudy
8:55 AM 82.4 °F 91.5 °F 77.9 °F 86% 30.07 in 8.0 mi NE 2.3 mph - N/A   Partly Cloudy
9:56 AM 84.2 °F 94.1 °F 77.2 °F 79% 30.08 in 9.0 mi SSE 2.3 mph - N/A   Scattered Clouds
10:58 AM 85.8 °F 97.3 °F 77.5 °F 76% 30.08 in 10.0 mi SE 2.3 mph - N/A   Scattered Clouds
11:55 AM 87.8 °F 97.6 °F 75.4 °F 66% 30.07 in 10.0 mi SSE 6.9 mph - N/A   Scattered Clouds
12:28 PM 87.8 °F 99.7 °F 77.0 °F 70% 30.06 in 10.0 mi South 6.9 mph - N/A Rain Light Rain Showers
12:56 PM 88.2 °F 99.0 °F 75.9 °F 67% 30.07 in 10.0 mi SSW 3.5 mph - 0.00 in   Scattered Clouds
1:59 PM 89.2 °F 101.8 °F 77.2 °F 67% 30.06 in 10.0 mi South 9.2 mph - 0.00 in   Mostly Cloudy
2:32 PM 89.6 °F 102.2 °F 77.0 °F 66% 30.04 in 10.0 mi SW 6.9 mph - N/A   Mostly Cloudy
2:57 PM 88.5 °F 99.9 °F 76.3 °F 67% 30.05 in 10.0 mi South 8.1 mph - N/A   Mostly Cloudy
3:44 PM 87.8 °F 97.6 °F 75.2 °F 66% 30.02 in 10.0 mi South 11.5 mph - N/A Thunderstorm Mostly Cloudy
3:55 PM 86.9 °F 96.4 °F 75.4 °F 68% 30.03 in 10.0 mi South 9.2 mph - N/A   Mostly Cloudy
4:55 PM 85.3 °F 94.6 °F 75.9 °F 73% 30.03 in 10.0 mi SSW 8.1 mph - N/A   Mostly Cloudy
5:55 PM 86.4 °F 96.4 °F 76.1 °F 71% 30.04 in 10.0 mi SSW 9.2 mph - N/A   Mostly Cloudy
6:55 PM 84.0 °F 92.6 °F 75.7 °F 76% 30.06 in 10.0 mi SSW 5.8 mph - N/A   Mostly Cloudy
7:55 PM 82.8 °F 90.1 °F 75.4 °F 78% 30.08 in 10.0 mi SSW 4.6 mph - N/A   Mostly Cloudy
8:55 PM 81.9 °F 88.2 °F 74.7 °F 79% 30.10 in 10.0 mi WSW 3.5 mph - N/A   Mostly Cloudy
9:55 PM 82.2 °F 89.1 °F 75.0 °F 79% 30.11 in 10.0 mi WSW 2.3 mph - N/A   Scattered Clouds
10:55 PM 81.3 °F 87.8 °F 75.7 °F 83% 30.10 in 10.0 mi WNW 3.5 mph - N/A   Partly Cloudy
11:55 PM 77.9 °F - 75.2 °F 91% 30.09 in 10.0 mi NNW 3.5 mph - N/A   Scattered Clouds